Погода в Аральске

Погода в Аральске : погода сейчас, прогноз погоды и архив. Всё, что Вы хотите узнать о погоде в Аральске!

Хотите узнать прогноз погоды в Аральске? Тогда Вам сюда: Погода в Аральске

Поиск расширенной информации на нашем сайте:

Полезная информация:

Другие новости

Новости СМИ2

Главная страница сайта

Новости сайта

03.07.2017

Напоминаем, что на нашем специализированном сайте Метеоцентр.Азия вы можете получить высокодетализированные автоматические прогнозы погоды по пунктам России, СНГ и мира в авиационном формате (включающие направление и скорость ветра, видимость, явления погоды, количество и форму облачности, нижнюю и верхнюю границу облачности).

Рекомендуем:

Погода в Аральске - сегодня

Время (UTC), дата Ветер
(°,м/с) 
Видим.   Явления Облачность Т
(°С)
Тd
(°С)
f(%) Тe
(°С)
Pmin
(гПа)
dP
(гПа)
Po
(мм)
O2
(г/м3)
Тmin Tmax R s Состояние
почвы
00 17.06.19 230 (ЮЗ) 20000 м    9/5 600 м кучево-дожд., средняя, верхняя 
[Cb calv|Ac und|Ci fib]
+19.3 +8.1 48 +20  1004.7  -0.6  749  280           
03 17.06.19 360 (С) 20000 м    9/0 средняя, верхняя 
[Ac und|Ci fib]
+20 +3 32 +20  1005.9  1.2  750  281           
06 17.06.19 340 (С) 20000 м    8/0 верхняя 
[Ci sp]
+25.7 -0.2 18 +26  1007.1  1.3  751  276  +18         
09 17.06.19 310 (СЗ) 20000 м    8/0 верхняя 
[Ci sp]
+27.6 -0.5 16 +28  1007.4  0.4  751  275           
12 17.06.19 310 (СЗ) 20000 м    8/0 верхняя 
[Ci sp]
+28.4 +0.2 16 +28  1006.9  -0.5  751  274           
15 17.06.19 290 (З) 20000 м    8/0 средняя, верхняя 
[Ac und|Ci sp]
+28.1 -0.9 15 +28  1006.8  -0.1  751  274    +29       
18 17.06.19 300 (СЗ) н/о    3/0 средняя 
[Ac und]
+22.4 -0.2 22 +22  1007.4  0.5  751  280    +29       
21 17.06.19 360 (С) н/о    ясно 
+19.8 +0.9 28 +20  1007.8  0.3  751  282           
00 18.06.19 020 (С) 20000 м    ясно 
+17.5 +4.5 42 +18  1009.3  1.5  752  284           
03 18.06.19 030 (СВ) 20000 м    ясно 
+20 +5.6 39 +20  1011  1.7  754  282           
06 18.06.19 050 (СВ) 20000 м    4/0 верхняя 
[Ci fib]
+25.3 +2.7 23 +25  1010.8  -0.1  754  277  +16.6         
09 18.06.19 тихо ()   20000 м    9/0 верхняя 
[Ci sp]
+27.3 +0.4 17 +27  1010.1  -0.6  753  276           
12 18.06.19 310 (СЗ) 20000 м    9/0 верхняя 
[Ci sp]
+29 -0.9 14 +29  1009.1  -1  752  274           
15 18.06.19 280 (З) 20000 м    8/0 верхняя 
[Ci sp]
+28.9 -2.2 13 +29  1008.9  -0.2  752  274    +29.9       
18 18.06.19 220 (ЮЗ) н/о    4/0 верхняя 
[Ci sp]
+20.1 +2.1 30 +20  1009.9  0.8  753  282    +29.9       
21 18.06.19 180 (Ю) н/о    3/0 верхняя 
[Ci sp]
+15.9 +2.3 40 +17  1009.5  -0.5  752  286           
00 19.06.19 тихо ()   20000 м    ясно 
+14.4 +8 65 +14  1010.2  0.7  753  287           
03 19.06.19 230 (ЮЗ) 20000 м    1/0 верхняя 
[Ci fib]
+22.8 +5.8 33 +23  1010.6  0.6  753  279           
06 19.06.19 тихо ()   20000 м    8/0 верхняя 
[Ci fib]
+29.8 +3.8 19 +30  1010.3  -0.2  753  273  +14.3         
09 19.06.19 020 (С) 20000 м    9/5 1000 м верхняя 
[Cu hum|Ci sp]
+31.3 +3.4 17 +31  1009.6  -0.7  753  272           
12 19.06.19 300 (СЗ) 20000 м    9/5 1000 м верхняя 
[Cu hum|Ci sp]
+31.9 +3.2 16 +32  1008.9  -0.6  752  271           
15 19.06.19 230 (ЮЗ) 20000 м    8/0 средняя, верхняя 
[Ac cuf|Ci fib]
+29.8 +3.4 19 +30  1009.3  0.3  752  273    +33.1       
18 19.06.19 050 (СВ) н/о    5/0 средняя 
[Ac lent]
+26.1 +3.6 23 +26  1010.2  0.8  753  276    +33.1       
21 19.06.19 050 (СВ) н/о    8/0 средняя 
[Ac und]
+20.8 +3 31 +21  1010  -0.3  753  281           
00 20.06.19 060 (СВ) 20000 м    9/0 средняя, верхняя 
[Ac und|Ci fib]
+20.4 +0 25 +20  1010.6  0.6  753  282           
Время (UTC), дата Ветер
(°,м/с) 
Видим.   Явления Облачность Т
(°С)
Тd
(°С)
f(%) Тe
(°С)
Pmin
(гПа)
dP
(гПа)
Po
(мм)
O2
(г/м3)
Тmin Tmax R s Состояние
почвы

Для получения пояснительной информации подведите курсор к названию столбца.

ПОГОДА в Аральске - архив

Всё, что Вы хотите узнать о погоде в Аральске - удобно и подробно!

Выберите нужную дату (начиная с 1 января 2018* года) и нажмите кнопку "Найти".
Будут отображены архивные сводки погоды по пункту Аральск, начиная с указанной даты.


Отображать данные в формате CSV (для использования в таблицах Excel)


Внимание! Наш архив погоды предназначен исключительно для личного некоммерческого использования в познавательных целях. Если Вам необходимы официальные справки о состоянии погоды (для производственных, юридических, коммерческих и т.п. целей), обращайтесь в органы Росгидромета.

*Примечание: данная дата относится к архиву по метеостанциям СССР (Россия, СНГ, Балтия).
Архив по метеостанциям Зарубежной Европы и Азии (кроме Китая) хранится 10 дней, по другим регионам земного шара (Китай, Африка, Америка, Австралия, Океания) - 1 день.

Аральск - район местоположения метеостанции


Название, широта, долгота, высота метеостанции:
Аральск 46.8°ш. 61.6°д. 62 м над ур. моря [Казахстан]

Дополнительная информация

В oтличие oт бoльшинства пoгoдных сайтoв мы публикуем пoдрoбную метеoинфoрмацию в детальнoм прoфессиoнальнoм фoрмате.

Характеристики температуры и влажнoсти вoздуха измеряются на высoте 2 м в тени вдали oт зданий и деревьев.
Скoрoсть ветра измеряется на высoте 10 м (на урoвне рoста челoвека скoрoсть ветра ниже в 1.5-2 раза). Если метеoстанция нахoдится в гoрoде или в лесу, тo скoрoсть ветра занижена на 2-4 м/с пo сравнению с oткрытым местoм. Скoрoсть ветра над акватoриями крупных рек и oзёр, а также на вершинах хoлмoв на 2-5 м/с выше, чем в oбычных услoвиях.
Атмoсфернoе давление в разных тoчках местнoсти мoжет значительнo oтличаться oт давления на метеoстанции, в зависимoсти oт услoвий рельефа (при пoдъёме на 10 м давление пoнижается примернo на 1 мм рт.ст.).